2021-020F (47859 NORAD) Tracking and Keplerian Element Data

This shows tracking and keplerian element data for the satellite.

Feedback or suggestion? Click here.




ElementValue
Catalog47859
Name2021-020F
Epoch Orbit402
Epoch Day102.052474
Epoch Year2021
RAAN76.8135
Inclination63.4114
Eccentricity0.000431
Argument of Perigee318.8187
Mean Anonmoly41.2513
Mean Motion13.44243752
Decay Rate-9E-07
L11 47859U 21020F 21102.05247400 -.00000090 00000-0 00000+0 0 9995
L22 47859 63.4114 76.8135 0004310 318.8187 41.2513 13.44243752 4025



Live tracking and technical data element details for 2021-020F (NORAD 47859). 2021-020F can be tracked NOW for your location showing map with azimuth and elevation plus other details from your city location.







IsCatalogInMostPopularTable: catalog: 47859, numindb: 97
Update: records affected: 1



GetName: 47859 2021-020F

Hit Count: updated at: Sun, 11 Jun 2023 01:02:26 GMT